N7612J KSAN-KSNA

Flight info

Callsign N7612J
Flight time 0h 39m
Altitude 6000
Route SANP3
Aircraft SR22/L-G/L

Departure

Time 2026-05-04 00:06
Airport San Diego International Airport (KSAN)

Arrival

Time 2026-05-04 00:45
Airport John Wayne Orange County International Airport (KSNA)
Time Latitude Longitude Altitude Speed Heading
2026-05-03 23:45 32.73360 -117.17885 23 ft 0 kts 17°
2026-05-03 23:57 32.73361 -117.17886 22 ft 0 kts 268°
2026-05-03 23:58 32.73361 -117.17887 22 ft 0 kts 245°
2026-05-03 23:59 32.73354 -117.17920 22 ft 12 kts 252°
2026-05-03 23:59 32.73261 -117.17966 20 ft 21 kts 177°
2026-05-04 00:00 32.73196 -117.17838 20 ft 21 kts 107°
2026-05-04 00:00 32.73164 -117.17699 22 ft 13 kts 105°
2026-05-04 00:00 32.73140 -117.17606 23 ft 6 kts 117°
2026-05-04 00:00 32.73138 -117.17603 23 ft 0 kts 124°
2026-05-04 00:01 32.73121 -117.17580 24 ft 8 kts 138°
2026-05-04 00:02 32.73102 -117.17561 24 ft 0 kts 137°
2026-05-04 00:05 32.73075 -117.17539 23 ft 16 kts 153°
2026-05-04 00:05 32.73037 -117.17641 23 ft 29 kts 282°
2026-05-04 00:05 32.73140 -117.18078 36 ft 77 kts 277°
2026-05-04 00:05 32.73260 -117.18727 340 ft 87 kts 283°
2026-05-04 00:06 32.73601 -117.19292 701 ft 87 kts 320°
2026-05-04 00:06 32.74103 -117.19701 965 ft 88 kts 320°
2026-05-04 00:06 32.74634 -117.20116 1193 ft 97 kts 321°
2026-05-04 00:06 32.75211 -117.20577 1474 ft 99 kts 321°
2026-05-04 00:07 32.75768 -117.21014 1802 ft 97 kts 320°
2026-05-04 00:07 32.76334 -117.21458 2124 ft 97 kts 320°
2026-05-04 00:07 32.76885 -117.21912 2441 ft 97 kts 320°
2026-05-04 00:07 32.77439 -117.22357 2759 ft 98 kts 321°
2026-05-04 00:08 32.78005 -117.22822 3066 ft 99 kts 321°
2026-05-04 00:08 32.78568 -117.23283 3378 ft 100 kts 320°
2026-05-04 00:08 32.79132 -117.23745 3688 ft 100 kts 321°
2026-05-04 00:08 32.79706 -117.24215 4001 ft 101 kts 321°
2026-05-04 00:09 32.80296 -117.24676 4316 ft 102 kts 320°
2026-05-04 00:09 32.80952 -117.24999 4630 ft 104 kts 335°
2026-05-04 00:09 32.81637 -117.25277 4923 ft 106 kts 334°
2026-05-04 00:09 32.82332 -117.25553 5231 ft 107 kts 334°
2026-05-04 00:10 32.83048 -117.25833 5555 ft 108 kts 335°
2026-05-04 00:10 32.83759 -117.26111 5852 ft 110 kts 335°
2026-05-04 00:10 32.84542 -117.26417 5950 ft 131 kts 336°
2026-05-04 00:10 32.85458 -117.26771 5960 ft 151 kts 336°
2026-05-04 00:11 32.86489 -117.27170 5956 ft 164 kts 337°
2026-05-04 00:11 32.87512 -117.27565 5950 ft 171 kts 337°
2026-05-04 00:11 32.88629 -117.27997 5949 ft 174 kts 336°
2026-05-04 00:11 32.89795 -117.28448 5949 ft 174 kts 337°
2026-05-04 00:12 32.90882 -117.28868 5942 ft 174 kts 338°
2026-05-04 00:12 32.92034 -117.29314 5942 ft 174 kts 338°
2026-05-04 00:12 32.93190 -117.29762 5945 ft 173 kts 337°
2026-05-04 00:12 32.94347 -117.30211 5941 ft 173 kts 338°
2026-05-04 00:13 32.95478 -117.30649 5964 ft 172 kts 338°
2026-05-04 00:13 32.96612 -117.31089 5967 ft 171 kts 338°
2026-05-04 00:13 32.97758 -117.31534 5969 ft 172 kts 337°
2026-05-04 00:13 32.98894 -117.31974 5968 ft 172 kts 338°
2026-05-04 00:14 33.00041 -117.32420 5969 ft 172 kts 337°
2026-05-04 00:14 33.01181 -117.32862 5968 ft 172 kts 338°
2026-05-04 00:14 33.02315 -117.33302 5968 ft 172 kts 337°
2026-05-04 00:14 33.03470 -117.33751 5969 ft 172 kts 337°
2026-05-04 00:15 33.04602 -117.34190 5967 ft 173 kts 337°
2026-05-04 00:15 33.05776 -117.34647 5972 ft 173 kts 337°
2026-05-04 00:15 33.06951 -117.35104 5976 ft 173 kts 338°
2026-05-04 00:15 33.08099 -117.35550 5979 ft 173 kts 338°
2026-05-04 00:16 33.09246 -117.35996 5978 ft 173 kts 337°
2026-05-04 00:16 33.10390 -117.36441 5974 ft 173 kts 338°
2026-05-04 00:16 33.11534 -117.36887 5975 ft 172 kts 338°
2026-05-04 00:16 33.12673 -117.37330 5973 ft 172 kts 338°
2026-05-04 00:17 33.13806 -117.37771 5970 ft 172 kts 337°
2026-05-04 00:17 33.14952 -117.38217 5973 ft 172 kts 338°
2026-05-04 00:17 33.16075 -117.38655 5971 ft 172 kts 338°
2026-05-04 00:17 33.17224 -117.39103 5970 ft 172 kts 339°
2026-05-04 00:18 33.18368 -117.39548 5970 ft 172 kts 338°
2026-05-04 00:18 33.19500 -117.39990 5967 ft 172 kts 338°
2026-05-04 00:18 33.20638 -117.40433 5968 ft 172 kts 337°
2026-05-04 00:18 33.21790 -117.40882 5967 ft 172 kts 338°
2026-05-04 00:19 33.22930 -117.41327 5969 ft 172 kts 339°
2026-05-04 00:19 33.24016 -117.41888 5964 ft 168 kts 318°
2026-05-04 00:19 33.24878 -117.42810 5968 ft 167 kts 313°
2026-05-04 00:19 33.25731 -117.43765 5969 ft 167 kts 312°
2026-05-04 00:20 33.26570 -117.44717 5969 ft 166 kts 311°
2026-05-04 00:20 33.27411 -117.45682 5973 ft 166 kts 312°
2026-05-04 00:20 33.28243 -117.46641 5976 ft 166 kts 312°
2026-05-04 00:20 33.29080 -117.47612 5972 ft 167 kts 311°
2026-05-04 00:21 33.29901 -117.48566 5968 ft 167 kts 312°
2026-05-04 00:21 33.30734 -117.49534 5970 ft 167 kts 312°
2026-05-04 00:21 33.31569 -117.50506 5968 ft 167 kts 311°
2026-05-04 00:21 33.32407 -117.51485 5969 ft 168 kts 312°
2026-05-04 00:22 33.33258 -117.52477 5969 ft 168 kts 312°
2026-05-04 00:22 33.34108 -117.53468 5969 ft 168 kts 312°
2026-05-04 00:22 33.34953 -117.54454 5959 ft 168 kts 311°
2026-05-04 00:22 33.35802 -117.55445 5957 ft 168 kts 311°
2026-05-04 00:23 33.36668 -117.56457 5956 ft 168 kts 312°
2026-05-04 00:23 33.37531 -117.57465 5959 ft 168 kts 312°
2026-05-04 00:23 33.38387 -117.58464 5959 ft 168 kts 311°
2026-05-04 00:23 33.39238 -117.59460 5956 ft 168 kts 311°
2026-05-04 00:24 33.40100 -117.60467 5952 ft 168 kts 311°
2026-05-04 00:24 33.40934 -117.61442 5951 ft 168 kts 311°
2026-05-04 00:24 33.41768 -117.62417 5953 ft 168 kts 313°
2026-05-04 00:24 33.42594 -117.63384 5957 ft 168 kts 312°
2026-05-04 00:25 33.43430 -117.64362 5948 ft 168 kts 312°
2026-05-04 00:25 33.44246 -117.65318 5941 ft 168 kts 312°
2026-05-04 00:25 33.45083 -117.66298 5950 ft 168 kts 311°
2026-05-04 00:25 33.45923 -117.67281 5946 ft 169 kts 311°
2026-05-04 00:26 33.46758 -117.68259 5953 ft 169 kts 312°
2026-05-04 00:26 33.47604 -117.69251 5956 ft 169 kts 312°
2026-05-04 00:26 33.48494 -117.70152 5948 ft 169 kts 319°
2026-05-04 00:26 33.49440 -117.70991 5949 ft 169 kts 320°
2026-05-04 00:27 33.50347 -117.71896 5952 ft 167 kts 312°
2026-05-04 00:27 33.51176 -117.72865 5947 ft 168 kts 311°
2026-05-04 00:27 33.52023 -117.73852 5948 ft 168 kts 312°
2026-05-04 00:27 33.52864 -117.74837 5956 ft 169 kts 312°
2026-05-04 00:28 33.53699 -117.75823 5957 ft 169 kts 312°
2026-05-04 00:28 33.54536 -117.76804 5959 ft 169 kts 311°
2026-05-04 00:28 33.55369 -117.77792 5955 ft 169 kts 311°
2026-05-04 00:28 33.56213 -117.78791 5950 ft 169 kts 312°
2026-05-04 00:29 33.57045 -117.79778 5948 ft 169 kts 311°
2026-05-04 00:29 33.57883 -117.80768 5949 ft 169 kts 311°
2026-05-04 00:29 33.58733 -117.81760 5951 ft 169 kts 311°
2026-05-04 00:29 33.59570 -117.82740 5955 ft 169 kts 311°
2026-05-04 00:30 33.60407 -117.83733 5952 ft 169 kts 312°
2026-05-04 00:30 33.61241 -117.84714 5951 ft 169 kts 312°
2026-05-04 00:30 33.62014 -117.85614 5952 ft 170 kts 312°
2026-05-04 00:30 33.62803 -117.86531 5948 ft 170 kts 312°
2026-05-04 00:31 33.63800 -117.87279 5909 ft 175 kts 339°
2026-05-04 00:31 33.64986 -117.87710 5849 ft 177 kts 341°
2026-05-04 00:31 33.66201 -117.88148 5631 ft 184 kts 341°
2026-05-04 00:31 33.67424 -117.88602 5417 ft 185 kts 341°
2026-05-04 00:32 33.68483 -117.88998 5228 ft 185 kts 341°
2026-05-04 00:32 33.69524 -117.89387 5039 ft 185 kts 341°
2026-05-04 00:32 33.70615 -117.89792 4843 ft 186 kts 341°
2026-05-04 00:32 33.71677 -117.90188 4654 ft 186 kts 341°
2026-05-04 00:33 33.72761 -117.90591 4464 ft 186 kts 341°
2026-05-04 00:33 33.75182 -117.91434 3958 ft 189 kts 353°
2026-05-04 00:33 33.76294 -117.91111 3721 ft 190 kts 28°
2026-05-04 00:34 33.77293 -117.90379 3488 ft 190 kts 31°
2026-05-04 00:34 33.78288 -117.89633 3256 ft 190 kts 31°
2026-05-04 00:34 33.79285 -117.88881 3025 ft 190 kts 31°
2026-05-04 00:34 33.80268 -117.88142 2960 ft 180 kts 31°
2026-05-04 00:35 33.81214 -117.87421 2950 ft 169 kts 31°
2026-05-04 00:35 33.82121 -117.86733 2954 ft 159 kts 31°
2026-05-04 00:35 33.82997 -117.86063 2955 ft 152 kts 31°
2026-05-04 00:35 33.83855 -117.85403 2953 ft 146 kts 37°
2026-05-04 00:36 33.84354 -117.84412 2958 ft 140 kts 82°
2026-05-04 00:36 33.84276 -117.83286 2962 ft 134 kts 102°
2026-05-04 00:36 33.84120 -117.82196 2956 ft 131 kts 101°
2026-05-04 00:36 33.83969 -117.81117 2955 ft 128 kts 100°
2026-05-04 00:37 33.83818 -117.80074 2953 ft 126 kts 101°
2026-05-04 00:37 33.83679 -117.79043 2947 ft 124 kts 100°
2026-05-04 00:37 33.83487 -117.78063 2947 ft 120 kts 120°
2026-05-04 00:37 33.82885 -117.77441 2948 ft 112 kts 165°
2026-05-04 00:38 33.82130 -117.77445 2959 ft 108 kts 191°
2026-05-04 00:38 33.81435 -117.77730 2956 ft 105 kts 210°
2026-05-04 00:38 33.80796 -117.78168 2955 ft 104 kts 212°
2026-05-04 00:38 33.80185 -117.78699 2821 ft 112 kts 217°
2026-05-04 00:39 33.79619 -117.79156 2646 ft 101 kts 214°
2026-05-04 00:39 33.79089 -117.79542 2507 ft 93 kts 214°
2026-05-04 00:39 33.78588 -117.79887 2376 ft 93 kts 212°
2026-05-04 00:39 33.78067 -117.80233 2263 ft 92 kts 213°
2026-05-04 00:40 33.77557 -117.80565 2147 ft 92 kts 212°
2026-05-04 00:40 33.77040 -117.80898 2032 ft 92 kts 212°
2026-05-04 00:40 33.76526 -117.81225 1914 ft 92 kts 213°
2026-05-04 00:40 33.76022 -117.81545 1801 ft 91 kts 212°
2026-05-04 00:41 33.75518 -117.81864 1690 ft 91 kts 212°
2026-05-04 00:41 33.74982 -117.82204 1565 ft 91 kts 212°
2026-05-04 00:41 33.74465 -117.82530 1450 ft 91 kts 212°
2026-05-04 00:41 33.73954 -117.82854 1339 ft 93 kts 211°
2026-05-04 00:42 33.73428 -117.83186 1235 ft 87 kts 211°
2026-05-04 00:42 33.72948 -117.83489 1140 ft 85 kts 211°
2026-05-04 00:42 33.72457 -117.83800 1025 ft 85 kts 211°
2026-05-04 00:42 33.71974 -117.84106 911 ft 85 kts 212°
2026-05-04 00:43 33.71484 -117.84415 811 ft 80 kts 210°
2026-05-04 00:43 33.71023 -117.84706 701 ft 77 kts 211°
2026-05-04 00:43 33.70582 -117.84984 582 ft 77 kts 211°
2026-05-04 00:43 33.70128 -117.85267 512 ft 77 kts 210°
2026-05-04 00:44 33.69654 -117.85558 437 ft 79 kts 209°
2026-05-04 00:44 33.69205 -117.85825 305 ft 70 kts 210°
2026-05-04 00:44 33.68780 -117.86095 203 ft 71 kts 214°
2026-05-04 00:44 33.68348 -117.86385 95 ft 68 kts 211°
2026-05-04 00:45 33.67944 -117.86650 45 ft 63 kts 210°
2026-05-04 00:45 33.67640 -117.86843 48 ft 37 kts 205°
2026-05-04 00:45 33.67462 -117.86953 51 ft 20 kts 211°
2026-05-04 00:45 33.67413 -117.87048 51 ft 8 kts 287°
2026-05-04 00:46 33.67426 -117.87086 51 ft 0 kts 289°
2026-05-04 00:46 33.67427 -117.87086 51 ft 0 kts 287°
2026-05-04 00:48 33.67413 -117.87132 51 ft 14 kts 218°
2026-05-04 00:48 33.67326 -117.87192 51 ft 12 kts 208°
2026-05-04 00:49 33.67284 -117.87263 51 ft 9 kts 263°
2026-05-04 00:49 33.67270 -117.87326 52 ft 4 kts 212°
2026-05-04 00:49 33.67263 -117.87330 52 ft 0 kts 204°